Location: Unspecified
(0.0000°N, 0.0000°E)
Time: 13:45:50
(UTC+00:00)

Courier 1B - Pass Details

Date: 21 November 2019
Orbit: 963 x 1209 km, 28.3° (Epoch: 08 December)

Event Time Altitude Azimuth Distance (km) Brightness Sun altitude
Rises 04:17:39 0° 287° (WNW) 3,976 - -20.6°
Reaches altitude 10° 04:22:49 10° 317° (NW) 2,949 - -19.4°
Maximum altitude 04:25:19 12° 337° (NNW) 2,773 - -18.9°
Exits shadow 04:25:48 12° 342° (NNW) 2,771 9.5 -18.8°
Drops below altitude 10° 04:27:48 10° 358° (N) 2,881 9.7 -18.3°
Sets 04:32:42 0° 29° (NNE) 3,768 10.7 -17.1°
